Location: Oak Glen
(34.0495°N, 116.9470°E)
Time: 23:11:55
(UTC-07:00)

N. Korean satellite - Pass Details

Date: 15 October 2017
Orbit: 459 x 517 km, 97.2° (Epoch: 23 October)

Event Time Altitude Azimuth Distance (km) Brightness Sun altitude
Rises 03:21:48 0° 169° (S) 2,551 10.2 -9.8°
Reaches altitude 10° 03:23:53 10° 170° (S) 1,665 9.2 -10.2°
Maximum altitude 03:27:27 82° 257° (WSW) 489 6.6 -10.9°
Drops below altitude 10° 03:30:59 10° 347° (NNW) 1,644 9.4 -11.7°
Sets 03:33:02 0° 348° (NNW) 2,517 10.3 -12.1°
